Terminal Aerodrome Forecast
Issued by NWS Albany, NY

Home | Current Version | Previous Version | Text Only | Print | Product List | Glossary On
Versions: 1 2 3 4 5 6 7 8 9 10 11 12 13 14 15 16 17
000
FTUS41 KALY 230537 CCA
TAFGFL
TAF COR
KGFL 230537Z 2306/2406 17004KT P6SM VCFG FEW200
      TEMPO 2306/2310 1SM BR BKN001
     FM231000 19004KT 2SM BR FEW250
     FM231300 18005KT P6SM SCT250
     FM231600 18009G19KT P6SM SCT012 BKN030
     FM232100 19009KT P6SM VCSH BKN025 PROB30 2403/2406 4SM -DZ
      OVC015=

USA.gov is the U.S. government's official web portal to all federal, state and local government web resources and services.